Location: Cheyres
(46.8153°N, 6.7877°E)
Time: 06:19:39
(UTC+00:00)

CUTE 1.7 + AOD 2 - Pass Details

Date: 01 July 2022
Orbit: 589 x 608 km, 97.7° (Epoch: 09 August)

Event Time Altitude Azimuth Distance (km) Brightness Sun altitude
Rises 02:06:24 0° 34° (NNE) 2,851 ? -12.3°
Reaches altitude 10° 02:10:08 10° 68° (ENE) 1,936 ? -12.0°
Maximum altitude 02:11:32 11° 88° (E) 1,838 ? -11.8°
Drops below altitude 10° 02:12:55 10° 107° (ESE) 1,927 ? -11.7°
Sets 02:16:36 0° 142° (SE) 2,816 ? -11.3°
